Weather in Sanquelim

India     15°31′44″N   74°08′07″E
temp.,
°C
wind,
m/s
gust,
m/s
humid.,
%
clouds,
%
prec.,
mm/h
press.,
hPa
HPBL,
m
24 july, sat
sat2423:30+23w3891100 18.3 1008311
02:30+23w3893100 5.4 1006358
05:30+22wnw259697 9.3 1006194
08:30+23w389495 2.6 1008624
11:30+24w3895100 4.9 1008636
14:30+24w3994100 3.4 1007711
17:30+23w3895100 5.8 1006657
20:30+22w269797 1.8 1008303
25 july, sun
sun2523:30+22w259757 3.9 1009217
02:30+22wnw269841 1.8 1007273
05:30+21w1498100 3.9 1007187
08:30+24w3887100 2.8 1009797
11:30+25w588680 6.6 1009827
14:30+25w588697 4.1 1007823
17:30+24w3691100 7.5 1008522
20:30+23w269497 2.7 1009294
26 july, mon
mon2623:30+23w269492 5.6 1009317
02:30+22w369495 4.0 1008279
05:30+22w2596100 7.1 1008249
08:30+23wsw369698 2.4 1010486
11:30+24w3791100 4.5 1010598
14:30+25w5885100 4.1 1008859
17:30+24w4890100 8.3 1008649
20:30+22w3694100 3.3 1009294
27 july, tue
tue2723:30+22wsw269598 6.5 1010275
02:30+22wsw269594 3.3 1008270
05:30+22wsw259791 6.0 1008250
08:30+24wsw388997 2.6 1009732
11:30+25wsw5886100 6.9 1009807
14:30+24w5887100 4.9 1007841
17:30+24wsw498998 9.8 1007773
20:30+22wsw379364 3.9 1009361
28 july, wed
wed2823:30+22wsw389248 8.1 1010360
02:30+22wsw389577 4.9 1008521
05:30+21wsw389694 8.6 1008350
08:30+23wsw499290 3.6 1010728
11:30+24wsw5108893 7.0 1010866
14:30+25w5108470 4.1 10081070
17:30+23wsw5108985 8.6 1008880
20:30+22wsw499254 3.7 1010521